NOAA 17 DEB, 48738

Orbit data source: Space-Track

NOAA 17 DEB, 48738 is space debris in SSO originally from a launch on Mon, 24 Jun 2002 UTC launched from the Air Force Western Test Range (AFWTR). Debris objects in space refer to the collection of defunct objects orbiting the Earth. Examples of debris include non-operational satellites, rocket bodies, and fragments generated from explosions, collisions, or faulty payload assembly.

Loading next visibility...
Identifier
48738, 2002-032BX
Orbit
SSO
Country
Flag of USUS
Related business
Manufacturer
Unknown
Mission
Spacecraft
Bus & Motor
Unknown
Mass
Unknown
Launch date (UTC)
2002-06-24 (24 years ago)
Launch vehicle
Unknown
Launch site
Air Force Western Test Range (AFWTR)
Object type
Payload
Rocket body
Debris
Shape & HBR
Unknown shape, 0.1 m
Radar Cross Section
Small (<0.1 m²)

Expand to show TLE details & history
Last TLE update: 2 weeks ago

TLE from 2 weeks ago
0 NOAA 17 DEB
1 48738U 02032BX  26162.02649544  .00002480  00000-0  11182-2 0  9997
2 48738  98.7331  81.4785 0094343 105.5765 255.5850 14.20723683268718
Epoch: 2026-06-11T00:38Z
TLE epoch observation values (Epoch: 2026-06-11T00:38:09.206Z)
Latitude
0.00005°
Longitude
172.56393°
Altitude
843.337 km
Speed
7.422 km/s
True Right ascension
05h 25m 54s
True Declination
0° 00' 00"
Sunlit
Object was in daylight at epoch
Visualization orbit readout
Latitude
Unknown
Longitude
Unknown
Altitude
Unknown
Speed
Unknown
Apparent Right ascension
Unknown
Apparent Declination
Unknown
Sunlit
N/A
Visualization observer readout
Local Sidereal Time
21:37:24
Azimuth
Unknown
Elevation
Unknown
Doppler factor
Unknown
Orbital elements
Apogee altitude
887.975 km
Perigee altitude
752.155 km
Semi-major axis
7,198.202 km
Eccentricity
0.00943
Inclination
98.7331°
RAAN
81.4785°
Arg. of periapsis
105.5765°
True anomaly
254.54107°
Mean anomaly
255.585°
Eccentric anomaly
255.06272°
Mean motion
3.55392 °/min
Orbital period
101.3 mins
BSTAR
0.0011182
Loading maneuver chart data...
Computing Atmospheric mass density...

Documentation

Showing up to 5 results
|